Location: Benikovice
(48.8298°N, 14.1884°E)
Time: 12:48:08
(UTC+00:00)

Daily predictions for brighter satellites

Satellite Brightness Start Highest point End
(mag) Time Altitude Azimuth Time Altitude Azimuth Time Altitude Azimuth
Resurs 1-3 3.8 19:14:28 10° S 19:18:51 77° WSW 19:23:16 10° NNW
Cosmos 2360 Rocket 3.9 19:18:06 10° N 19:22:25 22° NE 19:26:44 10° E
Cosmos 1633 2.7 19:20:14 10° S 19:23:46 56° E 19:27:20 10° NNE
Cosmos 332 Rocket 4.3 19:20:24 10° NNW 19:25:09 48° ENE 19:29:53 10° SE
ERS-1 Rocket 4.4 19:21:28 10° ESE 19:25:28 24° ENE 19:29:29 10° N
Cosmos 1606 2.8 19:26:34 10° NNW 19:30:20 78° W 19:34:08 10° S
Cosmos 2333 Rocket 4.3 19:28:49 10° N 19:32:18 16° NE 19:35:45 10° ENE
Nadezhda 4 Rocket 4.0 19:26:18 10° S 19:32:24 65° E 19:38:35 10° NNE
GP-B 4.2 19:31:04 10° NNE 19:34:53 27° E 19:38:41 10° SE
Landsat 7 3.8 19:33:26 10° SSE 19:38:11 87° ENE 19:42:59 10° NNW
Spot 2 Rocket 4.1 19:34:52 10° SE 19:39:40 43° ENE 19:44:29 10° N
SPOT 3 Rocket 3.6 19:34:40 10° SSE 19:39:53 81° ENE 19:45:09 10° NNW
ISS -3.4 19:36:38 10° WNW 19:39:57 56° SSW 19:42:58 12° SE
Cosmos 1825 4.5 19:37:52 10° SW 19:41:08 28° WNW 19:44:25 10° NNW
IGS 5A 3.6 19:37:17 10° S 19:41:25 77° WSW 19:45:36 10° NNW
BREEZE-M DEB (TANK) 3.3 19:33:02 10° W 19:44:19 85° N 19:47:40 10° E
Cosmos 1980 Rocket 2.8 19:38:52 10° NW 19:44:21 55° WSW 19:49:50 10° S
Cosmos 2058 4.4 19:41:56 10° SW 19:45:53 40° WNW 19:49:54 10° N
USA 234 4.3 19:39:47 10° ENE 19:45:56 45° N 19:52:05 10° WNW
MetOp-B 4.2 19:40:58 10° SSE 19:46:19 80° ENE 19:51:42 10° NNW
CZ-2C R/B 4.1 19:42:17 10° NNE 19:46:38 43° E 19:50:52 10° S
Cosmos 2221 3.9 19:45:10 10° NNW 19:49:11 38° W 19:53:10 10° SSW
RESURS DK-1 3.0 19:47:33 10° SW 19:51:41 62° WNW 19:55:49 10° NNE
USA 245 3.8 19:48:04 10° SSE 19:53:08 65° ENE 19:57:14 10° N
Meteor 2-15 4.4 19:47:56 10° N 19:54:02 86° E 20:00:06 10° S
Cosmos 2322 Rocket 2.7 19:49:44 10° NNW 19:55:13 48° NE 19:59:58 13° SE
BREEZE-M DEB (TANK) 3.6 19:51:42 10° SW 19:55:24 56° SE 20:08:14 10° ENE
Cosmos 304 Rocket 3.8 19:54:50 10° NNW 19:59:41 85° ENE 20:03:55 13° SSE
Cosmos 1933 3.3 19:56:45 10° N 20:00:50 78° E 20:04:32 12° SSE
BREEZE-M DEB (TANK) 3.9 19:57:45 10° W 20:01:02 55° SSW 20:09:24 13° SE
Cosmos 1538 Rocket 4.0 19:57:08 10° SSW 20:02:21 89° WNW 20:07:35 10° NNE
Resurs 01 Rocket 2.5 19:59:52 10° S 20:04:09 47° W 20:08:28 10° NNW
ERS-2 3.3 20:01:20 10° N 20:04:50 45° WNW 20:08:19 10° SW
Cosmos 2151 3.0 20:02:18 10° S 20:06:33 89° E 20:10:51 10° N
Cosmos 2098 Rocket 3.5 20:04:51 10° SSW 20:07:53 46° WNW 20:11:30 10° N
JB-3 4.4 20:05:26 10° NNE 20:09:34 64° E 20:13:37 10° S
Gbstr 26 Del rocket 2.7 20:06:22 10° WNW 20:10:05 70° SSW 20:12:56 18° SE
Meteor 2-3 Rocket 3.7 20:06:07 10° S 20:11:45 74° E 20:17:29 10° NNE
Meteor 2-15 Rocket 4.5 20:06:04 10° N 20:12:12 89° W 20:18:11 10° S
CARTOSAT-1 3.5 20:09:29 15° SSE 20:13:05 77° ENE 20:17:26 10° N
Cosmos 2219 Rocket 3.9 20:12:03 10° N 20:16:26 23° NE 20:20:49 10° E
Cosmos 1862 4.4 20:21:25 21° SE 20:23:05 28° E 20:26:29 10° NNE
SL-16 R/B 2.2 20:18:06 10° NNW 20:23:50 88° WSW 20:28:03 19° SSE
COSMOS 2455 4.4 20:26:05 15° ESE 20:27:01 15° ESE 20:30:22 10° ENE
Cosmos 1782 2.8 20:23:14 10° N 20:27:16 90° NNW 20:30:03 19° S
Cosmos 2237 4.4 20:22:07 10° NNW 20:27:48 64° ENE 20:31:46 20° SE
ARIANE 5 R/B 2.6 20:26:51 18° SSE 20:30:12 86° WSW 20:34:41 10° NNW
COSMOS 2428 4.4 20:26:18 10° N 20:30:55 24° NE 20:35:29 10° E
Meteor 2-6 Rocket 4.3 20:27:54 10° N 20:33:15 57° ENE 20:36:39 22° SE
Cosmos 1271 Rocket 3.4 20:29:56 10° NNW 20:33:51 55° W 20:36:55 16° S
SPOT 1/Viking Rocket 4.4 20:31:32 10° S 20:36:31 46° W 20:41:32 10° NNW
S3M 4.5 20:30:27 10° N 20:36:38 49° ENE 20:40:44 21° SE
USA 276 2.7 20:34:44 10° W 20:37:44 40° SSW 20:38:32 32° SSE
BREEZE-M DEB (TANK) 3.5 20:35:38 10° W 20:38:53 40° SSW 20:43:14 20° SE
Cosmos 1151 Rocket 3.0 20:36:30 10° N 20:40:53 84° W 20:43:40 22° S
Cosmos 1766 Rocket 3.5 20:37:42 18° S 20:40:57 75° E 20:45:20 10° NNE
ATLAS 5 CENTAUR R/B 3.7 20:38:33 10° NNW 20:43:02 29° NNE 20:48:13 10° E
Cosmos 1328 Rocket 3.5 20:40:39 10° N 20:45:08 83° E 20:47:39 25° SSE
Cosmos 1174 4.4 20:42:36 10° NNW 20:45:22 31° NE 20:46:29 23° E
ATLAS 2AS CENTAUR R/B 4.2 20:39:26 10° WSW 20:46:55 44° NNW 20:54:09 10° NE
Cosmos 923 Rocket 4.1 20:43:24 10° SSW 20:48:45 81° WNW 20:54:09 10° NNE
Terra 1.8 20:47:56 25° SSE 20:50:46 87° ENE 20:55:33 10° NNW
ATLAS 3B R/B 4.1 20:44:45 10° NW 20:50:53 32° WSW 20:56:42 12° S
USA 267 3.8 20:47:16 10° ENE 20:53:09 34° SE 20:59:00 10° SSW
SPOT 5 2.9 20:50:48 22° S 20:53:29 63° WSW 20:57:52 10° NNW
Cosmos 2082 Rocket 4.3 20:52:57 10° WSW 20:57:49 29° NW 21:02:43 10° NNE
Meteor 1-27 Rocket 4.3 20:53:31 10° N 20:58:56 46° ENE 21:01:49 26° SE
Cosmos 2056 Rocket 3.5 20:53:53 10° NNW 20:59:17 88° WSW 21:02:09 28° SSE
NOSS 2-1 (C) 2.9 21:00:51 47° SSE 21:01:15 50° SE 21:04:31 10° NE
BREEZE-M DEB (TANK) 2.0 21:01:32 10° W 21:03:13 55° WNW 21:03:13 55° WNW
ERS-1 Rocket 3.5 21:00:35 20° S 21:03:56 54° W 21:08:53 10° NNW
SL-27 R/B 2.5 21:06:23 45° SSE 21:07:10 58° ESE 21:10:44 10° NNE
Cosmos 2360 Rocket 2.1 21:01:31 10° NNW 21:07:12 88° WSW 21:10:08 30° SSE
Meteor 2-21 4.4 21:02:38 17° S 21:07:31 90° WNW 21:13:43 10° N
NOSS 2-1 (D) 2.7 21:08:18 48° S 21:08:56 62° SE 21:12:16 10° NE
ISS -1.2 21:14:56 10° WSW 21:15:56 12° SW 21:15:56 12° SW
Cosmos 1833 4.3 21:14:09 25° S 21:17:30 60° ESE 21:23:12 10° NE
Cosmos 2333 Rocket 2.5 21:12:12 10° NNW 21:17:48 60° ENE 21:20:38 29° SE
Meteor 1-10 Rocket 4.2 21:14:27 10° NNW 21:20:02 82° W 21:22:51 30° S
Cosmos 1371 Rocket 4.5 21:15:27 10° NNW 21:20:42 55° WSW 21:23:22 28° S
Cosmos 1812 3.6 21:17:47 10° NNW 21:21:28 43° W 21:23:04 27° SSW
Cosmos 2112 Rocket 4.4 21:18:09 10° SSW 21:23:25 65° WNW 21:28:41 10° NNE
Cosmos 1500 Rocket 3.7 21:22:35 41° SSE 21:23:49 59° E 21:28:11 10° NNE
Cosmos 1680 Rocket 4.1 21:18:47 10° SW 21:23:58 56° WNW 21:29:09 10° NNE
Cosmos 2322 3.9 21:22:25 10° NNW 21:28:09 68° ENE 21:30:49 32° SE
IRIDIUM 103 4.5 21:22:59 10° N 21:28:10 59° E 21:30:05 37° SE
USA 234 3.5 21:22:42 14° ESE 21:28:27 68° NNE 21:34:58 10° NW
COBE Rocket 4.0 21:29:38 37° SE 21:31:10 56° ENE 21:35:47 10° N
Cosmos 292 Rocket 3.8 21:27:14 10° NNW 21:32:00 74° WSW 21:33:40 40° S
Cosmos 2297 Rocket 4.3 21:35:24 11° E 21:35:31 11° E 21:36:36 10° E
Cosmos 2237 Rocket 3.7 21:33:26 10° NNW 21:38:17 28° NE 21:42:14 14° E
Meteor 2-16 Rocket 4.4 21:35:25 26° SSW 21:39:04 82° W 21:45:12 10° N
Cosmos 2322 Rocket 3.4 21:34:08 10° NW 21:39:05 32° WSW 21:41:46 21° SSW
Cosmos 1408 Rocket 4.2 21:40:12 26° SW 21:42:26 51° WNW 21:46:41 10° N
Cosmos 1743 Rocket 3.5 21:42:22 45° S 21:43:44 89° ESE 21:48:13 10° N
Cosmos 2285 Rocket 4.0 21:38:33 10° NNW 21:44:53 75° ENE 21:47:42 35° SE
IRIDIUM 106 4.2 21:41:12 10° N 21:46:28 83° E 21:48:18 42° S
Cosmos 2315 Rocket 4.0 21:43:06 10° N 21:49:27 88° E 21:52:17 36° S
Sich 1 3.3 21:51:50 47° ESE 21:52:22 51° E 21:56:35 10° NNE
Cosmos 2084 4.0 21:49:05 10° WSW 21:53:06 55° NW 21:57:15 10° NE
Cosmos 494 Rocket 4.5 21:53:16 37° ESE 21:53:56 39° ESE 21:58:42 10° NE
Okean 1 4.1 21:51:53 10° N 21:55:40 38° ENE 21:56:09 37° E
Cosmos 1633 Rocket 4.2 21:56:02 28° E 21:56:17 28° E 22:00:00 10° NNE
Cosmos 2266 Rocket 4.1 21:53:29 27° SSW 21:57:00 70° WNW 22:03:16 10° N
Cosmos 1666 Rocket 4.3 21:59:59 36° ESE 22:00:20 37° E 22:04:26 10° NNE
Cosmos 1048 Rocket 4.1 21:59:25 47° SSE 22:00:30 57° ESE 22:05:32 10° NNE
Cosmos 2219 Rocket 2.1 21:55:29 10° NNW 22:01:06 83° WSW 22:02:58 44° SSE
Cosmos 2228 Rocket 3.2 22:00:46 10° NNW 22:05:08 65° W 22:06:05 50° SSW
SL-16 R/B 4.4 22:01:05 10° N 22:05:11 20° NE 22:09:16 10° E
Meteor 1-19 Rocket 4.4 21:59:45 10° N 22:05:22 59° ENE 22:07:11 40° SE
SL-16 R/B 4.3 22:03:53 10° WNW 22:07:05 15° W 22:09:55 11° SW
NOSS 2-1 (E) 4.1 22:05:22 21° WSW 22:07:11 41° NW 22:10:35 10° NNE
USA 40 PKM 4.3 22:04:19 10° NW 22:07:57 76° NNE 22:08:39 55° ESE
NOSS 3-1 (C) 4.2 22:03:12 10° NW 22:10:35 64° SW 22:14:30 34° SSE
COSMOS 2455 2.7 22:09:10 33° SSW 22:12:00 80° ESE 22:18:04 10° NE
COSMOS 2428 2.6 22:10:08 10° NNW 22:15:51 78° WSW 22:17:35 46° SSE
Cosmos 1602 3.6 22:17:48 73° E 22:17:48 73° E 22:21:40 10° NNE
CZ-4C R/B 4.4 22:12:51 10° NW 22:18:37 31° NNE 22:25:21 10° E
Cosmos 1515 3.5 22:17:00 10° NNW 22:20:46 82° W 22:20:48 82° WSW
Cosmos 1862 Rocket 3.9 22:18:05 10° N 22:22:21 50° ENE 22:22:56 46° ESE
Spot 4 4.0 22:21:45 48° SSW 22:22:49 61° WSW 22:27:37 10° NNW
USA 229 DEB 3.9 22:17:33 10° NW 22:24:51 76° SW 22:28:16 37° SSE
USA 229 3.9 22:17:39 10° NW 22:24:57 77° SW 22:28:23 37° SSE
ATLAS 5 CENTAUR R/B 2.2 22:22:46 10° NW 22:28:16 89° WSW 22:30:39 40° SE
Terra 4.2 22:27:02 10° WSW 22:29:10 13° W 22:31:20 10° WNW
Cosmos 1452 Rocket 4.1 22:26:43 10° NW 22:31:41 43° WSW 22:32:49 38° SW
Cosmos 1707 Rocket 3.4 22:27:26 10° NNW 22:31:48 75° W 22:32:18 66° SSW
COSMOS 2487 3.2 22:31:49 45° WNW 22:31:54 45° WNW 22:35:12 10° N
Thor Agena Rocket 4.4 22:28:59 10° NNE 22:33:30 32° E 22:34:07 31° ESE
ALOS 2 2.5 22:33:57 65° SSW 22:34:29 76° WSW 22:38:54 10° NNW
USA 267 3.2 22:30:03 10° NE 22:36:38 86° NW 22:43:12 10° WSW
Cosmos 2219 4.2 22:40:38 29° ESE 22:41:18 30° ESE 22:46:13 10° NE
Nadezhda 1 Rocket 4.2 22:35:41 10° N 22:42:05 67° ENE 22:44:26 40° SE
Cosmos 1666 3.5 22:44:25 41° E 22:44:25 41° E 22:47:46 10° NNE
NOSS 3-1 (A) 4.2 22:37:53 10° NW 22:45:17 63° SW 22:48:48 37° S
SL-08 ROCKET BODY 4.4 22:44:13 45° S 22:46:15 90° E 22:52:27 10° N
Cosmos 2360 Rocket 4.1 22:47:14 10° WNW 22:50:21 15° W 22:51:53 14° WSW
NOSS 2-2 (D) 4.5 22:51:40 10° NW 22:56:46 72° NE 23:00:43 26° SE
Cosmos 1110 Rocket 4.4 22:52:38 10° NNW 22:57:47 49° WSW 22:58:40 45° SW
Cosmos 1980 3.6 22:54:02 10° NNW 22:59:45 87° WSW 23:01:19 50° SSE
Cosmos 2333 Rocket 3.5 22:57:08 10° NW 23:01:40 25° WSW 23:02:38 24° WSW
Cosmos 1331 Rocket 4.3 22:58:09 10° NNW 23:03:12 49° WSW 23:03:58 45° SW
CZ-2D R/B 4.4 23:04:52 10° ENE 23:06:53 12° E 23:08:55 10° ESE
Meteor 2-17 Rocket 4.5 23:05:18 45° SSE 23:07:05 66° E 23:13:06 10° NNE
USA 234 3.4 23:10:02 42° S 23:11:38 51° SW 23:18:01 10° WNW
Nimbus 7 Rocket 4.4 23:05:55 10° NNE 23:11:59 83° WNW 23:14:02 44° SSW
SL-16 R/B 4.4 23:07:18 10° ESE 23:12:06 24° NE 23:16:54 10° N
Cosmos 1340 Rocket 3.1 23:13:35 56° E 23:13:35 56° E 23:17:16 10° NNE
NOSS 0 Rocket 4.2 23:08:33 10° NW 23:14:35 52° WSW 23:16:01 43° SSW
Cosmos 2297 Rocket 2.2 23:17:11 51° S 23:18:26 66° ESE 23:24:05 10° NNE
Okean 1-7 3.0 23:14:16 10° N 23:18:30 66° ENE 23:18:54 62° ESE
Lacrosse 5 2.0 23:21:59 53° SE 23:22:05 53° SE 23:27:02 10° ENE
Cosmos 2237 Rocket 2.2 23:17:11 10° NNW 23:22:49 64° WSW 23:24:02 51° SSW
Cosmos 1869 Rocket 4.4 23:23:27 36° ESE 23:24:01 38° E 23:28:10 10° NNE
Cosmos 2084 Rocket 3.7 23:20:27 10° NW 23:24:07 53° W 23:24:07 53° W
Cosmos 2242 Rocket 3.5 23:20:12 10° N 23:24:38 77° E 23:25:08 67° SE
NOSS 2-2 (E) 4.4 23:20:32 10° NW 23:25:55 70° SW 23:28:32 39° SSE
Cosmos 1500 4.4 23:26:57 32° W 23:27:12 33° WNW 23:30:44 10° N
Cosmos 2181 Rocket 4.4 23:21:47 10° N 23:28:02 57° ENE 23:30:51 32° SE
Cosmos 1470 Rocket 3.7 23:29:03 54° WSW 23:29:30 58° WNW 23:33:47 10° N
Cosmos 2227 Rocket 2.3 23:28:53 49° SSE 23:30:08 62° ESE 23:35:44 10° NNE
Cosmos 909 Rocket 4.4 23:31:45 42° S 23:33:53 60° ESE 23:41:27 10° NE
Cosmos 1633 Rocket 4.2 23:33:06 29° W 23:33:58 32° WNW 23:37:55 10° N
Cosmos 1933 Rocket 3.5 23:35:34 66° SW 23:36:05 76° W 23:40:35 10° N
Timation 1 Rocket 4.5 23:41:04 45° SSE 23:42:40 61° ESE 23:48:36 10° NE
Meteor 1-11 Rocket 3.7 23:41:19 48° SSE 23:42:50 71° E 23:48:20 10° NNE
Cosmos 2219 Rocket 4.1 23:41:24 10° WNW 23:44:08 14° W 23:44:40 14° WSW
Cosmos 2263 Rocket 4.0 23:46:36 15° ESE 23:48:31 18° E 23:52:14 10° ENE
NOSS 2-2 (C) 4.5 23:44:51 10° NW 23:50:07 59° SW 23:52:23 40° S
SL-16 R/B 2.2 23:44:31 10° NNW 23:50:14 81° ENE 23:52:42 35° SE
Cosmos 1992 Rocket 3.9 23:45:28 10° NNW 23:50:44 83° WSW 23:52:06 51° SSE
PSLV R/B 4.0 23:46:25 10° N 23:51:09 62° WNW 23:52:12 48° SW
Cosmos 1269 Rocket 4.3 23:50:05 41° WSW 23:51:45 61° WNW 23:57:01 10° NNE
ADEOS Rocket 4.3 23:47:11 10° ESE 23:51:55 30° ENE 23:56:40 10° N
Resurs 1-4 Rocket 3.5 23:48:40 10° NE 23:53:14 28° E 23:55:13 22° SE
